[Date Prev][Date Next][Thread Prev][Thread Next] - [Date Index][Thread Index][Author Index]
2 Line ISS Keps 10-21
- Subject: [sarex] 2 Line ISS Keps 10-21
- From: "Dave Larsen PhD" <doc@xxxxxxxxxxx>
- Date: Sun, 21 Oct 2001 03:59:55 -0700
ISS
1 25544U 98067A 01294.14425969 .00069497 00000-0 92309-3 0 6297
2 25544 51.6388 175.1265 0008320 225.5199 292.0346 15.57531165166734
----
Via the sarex mailing list at AMSAT.ORG courtesy of AMSAT-NA.
To unsubscribe, send "unsubscribe sarex" to Majordomo@amsat.org
AMSAT Home